| time (UTC) | temp F | wind direction | speed MPH | gust MPH | rain 1hr in | rain 24hr in | rain mn in | humidity % | barometer mb |
| 20260505235017 | 62 | 158 | 5.0 | 12.0 | 0.00 | 0.00 | 0.00 | 81 | 1016.2 |
| 20260505234517 | 62 | 180 | 4.0 | 7.0 | 0.00 | 0.00 | 0.00 | 80 | 1016.1 |
| 20260505234017 | 62 | 158 | 7.0 | 13.0 | 0.00 | 0.00 | 0.00 | 80 | 1016.3 |
| 20260505233517 | 62 | 203 | 3.0 | 5.0 | 0.00 | 0.00 | 0.00 | 80 | 1016.3 |
| 20260505233037 | 62 | 203 | 4.0 | 8.0 | 0.00 | 0.00 | 0.00 | 80 | 1016.3 |
| 20260505232517 | 62 | 180 | 6.0 | 11.0 | 0.00 | 0.00 | 0.00 | 80 | 1016.3 |
| 20260505232037 | 62 | 158 | 5.0 | 10.0 | 0.00 | 0.00 | 0.00 | 81 | 1016.3 |
| 20260505231517 | 62 | 135 | 4.0 | 9.0 | 0.00 | 0.00 | 0.00 | 81 | 1016.4 |
| 20260505231017 | 62 | 180 | 4.0 | 7.0 | 0.00 | 0.00 | 0.00 | 81 | 1016.5 |
| 20260505230517 | 62 | 180 | 2.0 | 4.0 | 0.00 | 0.00 | 0.00 | 80 | 1016.5 |
| 20260505230017 | 62 | 180 | 3.0 | 7.0 | 0.00 | 0.00 | 0.00 | 81 | 1016.5 |
| 20260505225517 | 62 | 158 | 3.0 | 6.0 | 0.00 | 0.00 | 0.00 | 81 | 1016.5 |
| 20260505225017 | 62 | 158 | 4.0 | 7.0 | 0.00 | 0.00 | 0.00 | 80 | 1016.6 |
| 20260505224517 | 62 | 180 | 2.0 | 5.0 | 0.00 | 0.00 | 0.00 | 81 | 1016.7 |
| 20260505224017 | 62 | 180 | 3.0 | 5.0 | 0.00 | 0.00 | 0.00 | 81 | 1016.7 |
| 20260505223517 | 62 | 180 | 2.0 | 4.0 | 0.00 | 0.00 | 0.00 | 81 | 1016.8 |
| 20260505223017 | 62 | 180 | 3.0 | 5.0 | 0.00 | 0.00 | 0.00 | 81 | 1016.8 |
| 20260505222517 | 62 | 180 | 3.0 | 6.0 | 0.00 | 0.00 | 0.00 | 81 | 1016.9 |
| 20260505222037 | 62 | 180 | 3.0 | 9.0 | 0.00 | 0.00 | 0.00 | 82 | 1016.9 |
| 20260505221517 | 62 | 158 | 4.0 | 9.0 | 0.00 | 0.00 | 0.00 | 82 | 1016.9 |
| 20260505221017 | 62 | 203 | 3.0 | 6.0 | 0.00 | 0.00 | 0.00 | 82 | 1017.0 |
| 20260505220517 | 62 | 203 | 4.0 | 10.0 | 0.00 | 0.00 | 0.00 | 82 | 1017.0 |
| 20260505220017 | 62 | 203 | 3.0 | 7.0 | 0.00 | 0.00 | 0.00 | 83 | 1017.0 |
| 20260505215516 | 62 | 203 | 3.0 | 7.0 | 0.00 | 0.00 | 0.00 | 83 | 1017.2 |
| 20260505215017 | 62 | 180 | 2.0 | 4.0 | 0.00 | 0.00 | 0.00 | 83 | 1017.0 |
| 20260505214517 | 62 | 203 | 3.0 | 5.0 | 0.00 | 0.00 | 0.00 | 83 | 1017.1 |
| 20260505214017 | 62 | 158 | 3.0 | 5.0 | 0.00 | 0.00 | 0.00 | 83 | 1017.2 |
| 20260505213517 | 62 | 180 | 5.0 | 10.0 | 0.00 | 0.00 | 0.00 | 83 | 1017.1 |
| 20260505213016 | 62 | 158 | 4.0 | 7.0 | 0.00 | 0.00 | 0.00 | 83 | 1017.1 |
| 20260505212516 | 62 | 135 | 3.0 | 7.0 | 0.00 | 0.00 | 0.00 | 83 | 1017.1 |
| 20260505212017 | 62 | 135 | 3.0 | 6.0 | 0.00 | 0.00 | 0.00 | 83 | 1017.1 |
| 20260505211517 | 62 | 180 | 3.0 | 5.0 | 0.00 | 0.00 | 0.00 | 82 | 1017.1 |
| 20260505211016 | 62 | 158 | 3.0 | 7.0 | 0.00 | 0.00 | 0.00 | 82 | 1017.2 |
| 20260505210516 | 62 | 180 | 3.0 | 5.0 | 0.00 | 0.00 | 0.00 | 83 | 1017.2 |
| 20260505210017 | 62 | 180 | 3.0 | 5.0 | 0.00 | 0.00 | 0.00 | 83 | 1017.3 |
| 20260505205517 | 62 | 158 | 5.0 | 10.0 | 0.00 | 0.00 | 0.00 | 83 | 1017.3 |
| 20260505205016 | 62 | 180 | 3.0 | 6.0 | 0.00 | 0.00 | 0.00 | 83 | 1017.4 |
| 20260505204517 | 62 | 180 | 5.0 | 10.0 | 0.00 | 0.00 | 0.00 | 83 | 1017.4 |
| 20260505204017 | 62 | 180 | 6.0 | 10.0 | 0.00 | 0.00 | 0.00 | 83 | 1017.4 |
| 20260505203516 | 62 | 158 | 4.0 | 7.0 | 0.00 | 0.00 | 0.00 | 83 | 1017.4 |
| 20260505203036 | 62 | 158 | 4.0 | 9.0 | 0.00 | 0.00 | 0.00 | 83 | 1017.4 |
| 20260505202536 | 62 | 158 | 4.0 | 7.0 | 0.00 | 0.00 | 0.00 | 83 | 1017.5 |
| 20260505202016 | 62 | 158 | 3.0 | 9.0 | 0.00 | 0.00 | 0.00 | 83 | 1017.5 |
| 20260505201516 | 62 | 180 | 5.0 | 9.0 | 0.00 | 0.00 | 0.00 | 83 | 1017.5 |
| 20260505201016 | 62 | 180 | 5.0 | 7.0 | 0.00 | 0.00 | 0.00 | 83 | 1017.6 |
| 20260505200516 | 62 | 180 | 4.0 | 6.0 | 0.00 | 0.00 | 0.00 | 83 | 1017.6 |
| 20260505200016 | 62 | 158 | 3.0 | 5.0 | 0.00 | 0.00 | 0.00 | 83 | 1017.6 |
| 20260505195516 | 62 | 158 | 4.0 | 7.0 | 0.00 | 0.00 | 0.00 | 83 | 1017.7 |
| 20260505195016 | 62 | 158 | 2.0 | 5.0 | 0.00 | 0.00 | 0.00 | 83 | 1017.6 |
| 20260505194516 | 62 | 158 | 2.0 | 4.0 | 0.00 | 0.00 | 0.00 | 83 | 1017.7 |
| 20260505194016 | 62 | 158 | 2.0 | 6.0 | 0.00 | 0.00 | 0.00 | 83 | 1017.7 |
| 20260505193516 | 62 | 135 | 2.0 | 5.0 | 0.00 | 0.00 | 0.00 | 83 | 1017.6 |
| 20260505193037 | 62 | 180 | 3.0 | 5.0 | 0.00 | 0.00 | 0.00 | 83 | 1017.6 |
| 20260505192516 | 62 | 158 | 2.0 | 4.0 | 0.00 | 0.00 | 0.00 | 83 | 1017.7 |
| 20260505192016 | 62 | 180 | 2.0 | 5.0 | 0.00 | 0.00 | 0.00 | 83 | 1017.7 |
| 20260505191516 | 62 | 158 | 3.0 | 5.0 | 0.00 | 0.00 | 0.00 | 83 | 1017.6 |
| 20260505191016 | 62 | 158 | 5.0 | 7.0 | 0.00 | 0.00 | 0.00 | 83 | 1017.6 |
| 20260505190536 | 62 | 158 | 2.0 | 6.0 | 0.00 | 0.00 | 0.00 | 83 | 1017.6 |
| 20260505190016 | 62 | 158 | 3.0 | 5.0 | 0.00 | 0.00 | 0.00 | 83 | 1017.5 |
| 20260505185516 | 62 | 180 | 3.0 | 5.0 | 0.00 | 0.00 | 0.00 | 83 | 1017.4 |
| 20260505185016 | 62 | 180 | 3.0 | 6.0 | 0.00 | 0.00 | 0.00 | 83 | 1017.4 |
| 20260505184516 | 62 | 180 | 2.0 | 6.0 | 0.00 | 0.00 | 0.00 | 83 | 1017.5 |
| 20260505184016 | 62 | 180 | 5.0 | 8.0 | 0.00 | 0.00 | 0.00 | 83 | 1017.4 |
| 20260505183516 | 62 | 180 | 4.0 | 8.0 | 0.00 | 0.00 | 0.00 | 83 | 1017.4 |
| 20260505183016 | 62 | 158 | 4.0 | 7.0 | 0.00 | 0.00 | 0.00 | 83 | 1017.5 |
| 20260505182536 | 63 | 158 | 4.0 | 7.0 | 0.00 | 0.00 | 0.00 | 83 | 1017.5 |
| 20260505182016 | 63 | 158 | 3.0 | 7.0 | 0.00 | 0.00 | 0.00 | 83 | 1017.3 |
| 20260505181522 | 63 | 158 | 4.0 | 9.0 | 0.00 | 0.00 | 0.00 | 83 | 1017.4 |
| 20260505181016 | 63 | 135 | 4.0 | 9.0 | 0.00 | 0.00 | 0.00 | 83 | 1017.3 |
| 20260505180516 | 63 | 135 | 4.0 | 9.0 | 0.00 | 0.00 | 0.00 | 83 | 1017.2 |
| 20260505180016 | 63 | 158 | 4.0 | 10.0 | 0.00 | 0.00 | 0.00 | 82 | 1017.1 |
| 20260505175516 | 63 | 135 | 4.0 | 10.0 | 0.00 | 0.00 | 0.00 | 82 | 1017.2 |
| 20260505175036 | 63 | 135 | 3.0 | 9.0 | 0.00 | 0.00 | 0.00 | 82 | 1017.2 |
| 20260505174516 | 63 | 135 | 6.0 | 11.0 | 0.00 | 0.00 | 0.00 | 82 | 1017.2 |
| 20260505174016 | 63 | 135 | 5.0 | 10.0 | 0.00 | 0.00 | 0.00 | 82 | 1017.3 |
| 20260505173516 | 63 | 135 | 5.0 | 12.0 | 0.00 | 0.00 | 0.00 | 82 | 1017.2 |
| 20260505173016 | 63 | 135 | 5.0 | 10.0 | 0.00 | 0.00 | 0.00 | 81 | 1017.2 |
| 20260505172516 | 63 | 135 | 4.0 | 7.0 | 0.00 | 0.00 | 0.00 | 81 | 1017.3 |
| 20260505172016 | 63 | 135 | 4.0 | 11.0 | 0.00 | 0.00 | 0.00 | 81 | 1017.3 |
| 20260505171536 | 63 | 135 | 6.0 | 12.0 | 0.00 | 0.00 | 0.00 | 81 | 1017.3 |
| 20260505171036 | 63 | 135 | 5.0 | 11.0 | 0.00 | 0.00 | 0.00 | 81 | 1017.2 |
| 20260505170536 | 63 | 135 | 6.0 | 11.0 | 0.00 | 0.00 | 0.00 | 80 | 1017.3 |
| 20260505170016 | 64 | 135 | 7.0 | 12.0 | 0.00 | 0.00 | 0.00 | 80 | 1017.2 |
| 20260505165516 | 64 | 135 | 6.0 | 11.0 | 0.00 | 0.00 | 0.00 | 79 | 1017.2 |
| 20260505165018 | 64 | 135 | 6.0 | 10.0 | 0.00 | 0.00 | 0.00 | 79 | 1017.2 |
| 20260505164518 | 64 | 135 | 7.0 | 11.0 | 0.00 | 0.00 | 0.00 | 78 | 1017.1 |
| 20260505164018 | 65 | 158 | 5.0 | 11.0 | 0.00 | 0.00 | 0.00 | 78 | 1017.2 |
| 20260505163558 | 65 | 135 | 5.0 | 9.0 | 0.00 | 0.00 | 0.00 | 78 | 1017.1 |
| 20260505163018 | 65 | 158 | 6.0 | 11.0 | 0.00 | 0.00 | 0.00 | 77 | 1017.2 |
| 20260505162558 | 65 | 135 | 5.0 | 12.0 | 0.00 | 0.00 | 0.00 | 77 | 1017.2 |
| 20260505162038 | 65 | 135 | 4.0 | 13.0 | 0.00 | 0.00 | 0.00 | 78 | 1017.1 |
| 20260505161538 | 65 | 135 | 4.0 | 7.0 | 0.00 | 0.00 | 0.00 | 78 | 1017.2 |
| 20260505161017 | 64 | 135 | 5.0 | 11.0 | 0.00 | 0.00 | 0.00 | 78 | 1017.3 |
| 20260505160518 | 64 | 135 | 6.0 | 12.0 | 0.00 | 0.00 | 0.00 | 78 | 1017.1 |
| 20260505153018 | 65 | 135 | 6.0 | 13.0 | 0.00 | 0.00 | 0.00 | 76 | 1016.8 |
| 20260505152517 | 65 | 135 | 7.0 | 13.0 | 0.00 | 0.00 | 0.00 | 76 | 1017.0 |
| 20260505152018 | 65 | 135 | 7.0 | 12.0 | 0.00 | 0.00 | 0.00 | 76 | 1017.1 |
| 20260505151519 | 65 | 135 | 9.0 | 16.0 | 0.00 | 0.00 | 0.00 | 76 | 1017.2 |
| 20260505151017 | 65 | 135 | 7.0 | 13.0 | 0.00 | 0.00 | 0.00 | 76 | 1017.1 |
| 20260505150538 | 65 | 135 | 7.0 | 12.0 | 0.00 | 0.00 | 0.00 | 77 | 1017.0 |
| 20260505140538 | 66 | 158 | 7.0 | 13.0 | 0.00 | 0.00 | 0.00 | 68 | 1017.4 |
| 20260505125017 | 68 | 158 | 8.0 | 17.0 | 0.00 | 0.00 | 0.00 | 65 | 1017.6 |
| 20260505124517 | 67 | 135 | 12.0 | 20.0 | 0.00 | 0.00 | 0.00 | 66 | 1017.5 |
| 20260505124017 | 67 | 135 | 9.0 | 16.0 | 0.00 | 0.00 | 0.00 | 67 | 1017.7 |
| 20260505123537 | 67 | 135 | 12.0 | 16.0 | 0.00 | 0.00 | 0.00 | 67 | 1017.7 |
| 20260505123017 | 67 | 135 | 12.0 | 17.0 | 0.00 | 0.00 | 0.00 | 67 | 1017.6 |
| 20260505122518 | 67 | 135 | 9.0 | 16.0 | 0.00 | 0.00 | 0.00 | 68 | 1017.7 |
| 20260505122017 | 67 | 135 | 10.0 | 15.0 | 0.00 | 0.00 | 0.00 | 68 | 1017.8 |
| 20260505121517 | 66 | 135 | 9.0 | 16.0 | 0.00 | 0.00 | 0.00 | 68 | 1017.8 |
| 20260505121017 | 67 | 135 | 10.0 | 16.0 | 0.00 | 0.00 | 0.00 | 67 | 1017.9 |
| 20260505120517 | 67 | 135 | 10.0 | 17.0 | 0.00 | 0.00 | 0.00 | 67 | 1017.8 |
| 20260505120017 | 67 | 135 | 11.0 | 17.0 | 0.00 | 0.00 | 0.00 | 67 | 1017.9 |
| 20260505115517 | 67 | 135 | 11.0 | 17.0 | 0.00 | 0.00 | 0.00 | 66 | 1017.8 |
| 20260505115017 | 67 | 135 | 8.0 | 13.0 | 0.00 | 0.00 | 0.00 | 67 | 1018.0 |
| 20260505114517 | 67 | 135 | 11.0 | 18.0 | 0.00 | 0.00 | 0.00 | 67 | 1018.0 |
| 20260505114037 | 67 | 135 | 9.0 | 15.0 | 0.00 | 0.00 | 0.00 | 68 | 1018.1 |
| 20260505113517 | 67 | 135 | 9.0 | 17.0 | 0.00 | 0.00 | 0.00 | 68 | 1018.1 |
| 20260505113017 | 67 | 135 | 9.0 | 16.0 | 0.00 | 0.00 | 0.00 | 68 | 1018.0 |
| 20260505112517 | 66 | 135 | 11.0 | 18.0 | 0.00 | 0.00 | 0.00 | 68 | 1018.2 |
| 20260505112017 | 67 | 135 | 10.0 | 16.0 | 0.00 | 0.00 | 0.00 | 68 | 1018.1 |
| 20260505111517 | 67 | 135 | 11.0 | 18.0 | 0.00 | 0.00 | 0.00 | 70 | 1018.1 |
| 20260505111037 | 67 | 135 | 9.0 | 15.0 | 0.00 | 0.00 | 0.00 | 70 | 1018.2 |
| 20260505110517 | 67 | 135 | 9.0 | 16.0 | 0.00 | 0.00 | 0.00 | 69 | 1018.1 |
| 20260505102017 | 66 | 135 | 8.0 | 13.0 | 0.00 | 0.00 | 0.00 | 73 | 1018.2 |
| 20260505101517 | 66 | 135 | 7.0 | 12.0 | 0.00 | 0.00 | 0.00 | 74 | 1018.2 |
| 20260505101017 | 66 | 135 | 7.0 | 12.0 | 0.00 | 0.00 | 0.00 | 73 | 1018.3 |
| 20260505100517 | 66 | 135 | 9.0 | 12.0 | 0.00 | 0.00 | 0.00 | 72 | 1018.3 |
| 20260505100017 | 66 | 135 | 7.0 | 13.0 | 0.00 | 0.00 | 0.00 | 72 | 1018.4 |
| 20260505095537 | 66 | 135 | 7.0 | 13.0 | 0.00 | 0.00 | 0.00 | 71 | 1018.3 |
| 20260505095017 | 67 | 135 | 9.0 | 14.0 | 0.00 | 0.00 | 0.00 | 71 | 1018.3 |
| 20260505094517 | 67 | 135 | 8.0 | 13.0 | 0.00 | 0.00 | 0.00 | 70 | 1018.4 |
| 20260505094017 | 66 | 135 | 7.0 | 12.0 | 0.00 | 0.00 | 0.00 | 71 | 1018.5 |
| 20260505093517 | 66 | 135 | 6.0 | 12.0 | 0.00 | 0.00 | 0.00 | 72 | 1018.4 |
| 20260505093017 | 65 | 135 | 8.0 | 13.0 | 0.00 | 0.00 | 0.00 | 72 | 1018.3 |
| 20260505092517 | 66 | 135 | 9.0 | 14.0 | 0.00 | 0.00 | 0.00 | 73 | 1018.4 |
| 20260505092017 | 66 | 135 | 9.0 | 14.0 | 0.00 | 0.00 | 0.00 | 73 | 1018.4 |
| 20260505091517 | 66 | 135 | 10.0 | 15.0 | 0.00 | 0.00 | 0.00 | 72 | 1018.4 |
| 20260505091017 | 66 | 135 | 10.0 | 17.0 | 0.00 | 0.00 | 0.00 | 73 | 1018.4 |
| 20260505090517 | 66 | 135 | 10.0 | 15.0 | 0.00 | 0.00 | 0.00 | 73 | 1018.4 |
| 20260505090017 | 66 | 135 | 9.0 | 16.0 | 0.00 | 0.00 | 0.00 | 73 | 1018.4 |
| 20260505085517 | 66 | 135 | 8.0 | 14.0 | 0.00 | 0.00 | 0.00 | 72 | 1018.4 |
| 20260505085037 | 66 | 135 | 7.0 | 12.0 | 0.00 | 0.00 | 0.00 | 72 | 1018.4 |
| 20260505084516 | 66 | 135 | 9.0 | 13.0 | 0.00 | 0.00 | 0.00 | 73 | 1018.5 |
| 20260505084016 | 66 | 135 | 9.0 | 13.0 | 0.00 | 0.00 | 0.00 | 73 | 1018.4 |
| 20260505083517 | 66 | 135 | 9.0 | 16.0 | 0.00 | 0.00 | 0.00 | 74 | 1018.4 |
| 20260505083016 | 66 | 113 | 7.0 | 15.0 | 0.00 | 0.00 | 0.00 | 74 | 1018.3 |
| 20260505082517 | 65 | 135 | 7.0 | 12.0 | 0.00 | 0.00 | 0.00 | 75 | 1018.4 |
| 20260505082017 | 65 | 135 | 9.0 | 14.0 | 0.00 | 0.00 | 0.00 | 75 | 1018.4 |
| 20260505081516 | 65 | 135 | 10.0 | 14.0 | 0.00 | 0.00 | 0.00 | 76 | 1018.4 |
| 20260505081016 | 65 | 135 | 8.0 | 13.0 | 0.00 | 0.00 | 0.00 | 76 | 1018.4 |
| 20260505080517 | 65 | 135 | 8.0 | 13.0 | 0.00 | 0.00 | 0.00 | 76 | 1018.4 |
| 20260505080036 | 65 | 113 | 9.0 | 14.0 | 0.00 | 0.00 | 0.00 | 77 | 1018.4 |
| 20260505075516 | 65 | 135 | 8.0 | 14.0 | 0.00 | 0.00 | 0.00 | 76 | 1018.2 |
| 20260505075016 | 65 | 135 | 7.0 | 14.0 | 0.00 | 0.00 | 0.00 | 76 | 1018.2 |
| 20260505074517 | 65 | 113 | 10.0 | 14.0 | 0.00 | 0.00 | 0.00 | 77 | 1018.2 |
| 20260505074016 | 65 | 135 | 10.0 | 14.0 | 0.00 | 0.00 | 0.00 | 77 | 1018.2 |
| 20260505073516 | 65 | 135 | 8.0 | 13.0 | 0.00 | 0.00 | 0.00 | 76 | 1018.3 |
| 20260505073017 | 65 | 135 | 6.0 | 12.0 | 0.00 | 0.00 | 0.00 | 75 | 1018.4 |
| 20260505072517 | 65 | 135 | 7.0 | 11.0 | 0.00 | 0.00 | 0.00 | 75 | 1018.4 |
| 20260505072016 | 65 | 135 | 9.0 | 13.0 | 0.00 | 0.00 | 0.00 | 77 | 1018.4 |
| 20260505071516 | 65 | 135 | 7.0 | 12.0 | 0.00 | 0.00 | 0.00 | 78 | 1018.3 |
| 20260505071036 | 65 | 135 | 8.0 | 11.0 | 0.00 | 0.00 | 0.00 | 78 | 1018.5 |
| 20260505070516 | 64 | 135 | 8.0 | 11.0 | 0.00 | 0.00 | 0.00 | 79 | 1018.5 |
| 20260505070017 | 64 | 135 | 8.0 | 11.0 | 0.00 | 0.00 | 0.00 | 78 | 1018.4 |
| 20260505065517 | 64 | 135 | 6.0 | 9.0 | 0.00 | 0.00 | 0.00 | 78 | 1018.3 |
| 20260505065016 | 64 | 135 | 5.0 | 10.0 | 0.00 | 0.00 | 0.00 | 78 | 1018.4 |
| 20260505064516 | 64 | 135 | 5.0 | 10.0 | 0.00 | 0.00 | 0.00 | 78 | 1018.3 |
| 20260505064016 | 64 | 113 | 6.0 | 10.0 | 0.00 | 0.00 | 0.00 | 79 | 1018.3 |
| 20260505063517 | 64 | 135 | 7.0 | 11.0 | 0.00 | 0.00 | 0.00 | 79 | 1018.3 |
| 20260505063016 | 64 | 135 | 6.0 | 9.0 | 0.00 | 0.00 | 0.00 | 79 | 1018.4 |
| 20260505062516 | 64 | 135 | 7.0 | 10.0 | 0.00 | 0.00 | 0.00 | 79 | 1018.5 |
| 20260505062057 | 64 | 113 | 5.0 | 9.0 | 0.00 | 0.00 | 0.00 | 78 | 1018.5 |
| 20260505061516 | 64 | 135 | 7.0 | 10.0 | 0.00 | 0.00 | 0.00 | 78 | 1018.4 |
| 20260505061016 | 64 | 135 | 6.0 | 11.0 | 0.00 | 0.00 | 0.00 | 76 | 1018.4 |
| 20260505060516 | 64 | 135 | 5.0 | 9.0 | 0.00 | 0.00 | 0.00 | 71 | 1018.5 |
| 20260505060016 | 64 | 158 | 3.0 | 7.0 | 0.00 | 0.00 | 0.00 | 70 | 1018.3 |
| 20260505055516 | 64 | 135 | 3.0 | 6.0 | 0.00 | 0.00 | 0.00 | 70 | 1018.3 |
| 20260505055016 | 63 | 203 | 1.0 | 4.0 | 0.00 | 0.00 | 0.00 | 69 | 1018.3 |
| 20260505054516 | 63 | 248 | 1.0 | 2.0 | 0.00 | 0.00 | 0.00 | 68 | 1018.2 |
| 20260505054016 | 63 | 0.0 | 2.0 | 0.00 | 0.00 | 0.00 | 70 | 1018.1 | |
| 20260505053536 | 62 | 338 | 1.0 | 2.0 | 0.00 | 0.00 | 0.00 | 68 | 1018.0 |
| 20260505053017 | 61 | 0.0 | 0.0 | 0.00 | 0.00 | 0.00 | 68 | 1017.9 | |
| 20260505052656 | 60 | 0.0 | 0.0 | 0.00 | 0.00 | 0.00 | 69 | 1018.0 | |
| 20260505052016 | 60 | 0.0 | 0.0 | 0.00 | 0.00 | 0.00 | 69 | 1018.0 | |
| 20260505051516 | 60 | 0.0 | 1.0 | 0.00 | 0.00 | 0.00 | 69 | 1017.9 | |
| 20260505051016 | 60 | 270 | 1.0 | 2.0 | 0.00 | 0.00 | 0.00 | 68 | 1017.9 |
| 20260505050516 | 60 | 270 | 1.0 | 2.0 | 0.00 | 0.00 | 0.00 | 68 | 1017.8 |
| 20260505041516 | 59 | 0.0 | 0.0 | 0.00 | 0.00 | 0.00 | 68 | 1017.5 | |
| 20260505041016 | 59 | 0.0 | 0.0 | 0.00 | 0.00 | 0.00 | 68 | 1017.5 | |
| 20260505040516 | 59 | 0.0 | 0.0 | 0.00 | 0.00 | 0.00 | 70 | 1017.6 | |
| 20260505040016 | 59 | 0.0 | 1.0 | 0.00 | 0.00 | 0.00 | 69 | 1017.5 | |
| 20260505035516 | 59 | 0.0 | 2.0 | 0.00 | 0.00 | 0.00 | 70 | 1017.4 | |
| 20260505035016 | 59 | 0.0 | 0.0 | 0.00 | 0.00 | 0.00 | 71 | 1017.5 | |
| 20260505034516 | 59 | 0.0 | 1.0 | 0.00 | 0.00 | 0.00 | 69 | 1017.5 | |
| 20260505034016 | 59 | 248 | 1.0 | 1.0 | 0.00 | 0.00 | 0.00 | 69 | 1017.4 |
| 20260505033516 | 59 | 225 | 1.0 | 1.0 | 0.00 | 0.00 | 0.00 | 69 | 1017.4 |
| 20260505033016 | 59 | 0.0 | 1.0 | 0.00 | 0.00 | 0.00 | 70 | 1017.4 | |
| 20260505032536 | 59 | 0.0 | 0.0 | 0.00 | 0.00 | 0.00 | 69 | 1017.4 | |
| 20260505032036 | 59 | 0.0 | 0.0 | 0.00 | 0.00 | 0.00 | 69 | 1017.5 | |
| 20260505031516 | 59 | 0.0 | 0.0 | 0.00 | 0.00 | 0.00 | 69 | 1017.4 | |
| 20260505031016 | 59 | 0.0 | 0.0 | 0.00 | 0.00 | 0.00 | 69 | 1017.5 | |
| 20260505030518 | 59 | 0.0 | 2.0 | 0.00 | 0.00 | 0.00 | 68 | 1017.5 | |
| 20260505030038 | 59 | 0.0 | 1.0 | 0.00 | 0.00 | 0.00 | 68 | 1017.5 | |
| 20260505025518 | 60 | 0.0 | 0.0 | 0.00 | 0.00 | 0.00 | 67 | 1017.5 | |
| 20260505025018 | 60 | 0.0 | 0.0 | 0.00 | 0.00 | 0.00 | 67 | 1017.6 | |
| 20260505024518 | 60 | 0.0 | 0.0 | 0.00 | 0.00 | 0.00 | 66 | 1017.6 | |
| 20260505024018 | 60 | 0.0 | 0.0 | 0.00 | 0.00 | 0.00 | 65 | 1017.6 | |
| 20260505023518 | 60 | 0.0 | 0.0 | 0.00 | 0.00 | 0.00 | 63 | 1017.6 | |
| 20260505023018 | 60 | 0.0 | 0.0 | 0.00 | 0.00 | 0.00 | 61 | 1017.6 | |
| 20260505022518 | 61 | 0.0 | 0.0 | 0.00 | 0.00 | 0.00 | 61 | 1017.6 | |
| 20260505022038 | 61 | 0.0 | 0.0 | 0.00 | 0.00 | 0.00 | 60 | 1017.6 | |
| 20260505021538 | 61 | 0.0 | 1.0 | 0.00 | 0.00 | 0.00 | 58 | 1017.7 | |
| 20260505021018 | 61 | 0.0 | 1.0 | 0.00 | 0.00 | 0.00 | 57 | 1017.7 | |
| 20260505020517 | 61 | 0.0 | 0.0 | 0.00 | 0.00 | 0.00 | 58 | 1017.7 | |
| 20260505020017 | 62 | 0.0 | 0.0 | 0.00 | 0.00 | 0.00 | 57 | 1017.7 | |
| 20260505015518 | 62 | 135 | 1.0 | 2.0 | 0.00 | 0.00 | 0.00 | 57 | 1017.7 |
| 20260505015018 | 63 | 293 | 1.0 | 3.0 | 0.00 | 0.00 | 0.00 | 53 | 1017.7 |
| 20260505014517 | 62 | 293 | 2.0 | 3.0 | 0.00 | 0.00 | 0.00 | 53 | 1017.8 |
| 20260505014018 | 63 | 270 | 1.0 | 2.0 | 0.00 | 0.00 | 0.00 | 53 | 1017.8 |
| 20260505013518 | 63 | 270 | 2.0 | 3.0 | 0.00 | 0.00 | 0.00 | 52 | 1017.8 |
| 20260505013018 | 63 | 270 | 3.0 | 4.0 | 0.00 | 0.00 | 0.00 | 52 | 1017.8 |
| 20260505012517 | 63 | 270 | 3.0 | 4.0 | 0.00 | 0.00 | 0.00 | 53 | 1017.8 |
| 20260505012017 | 62 | 270 | 3.0 | 3.0 | 0.00 | 0.00 | 0.00 | 53 | 1017.9 |
| 20260505011517 | 63 | 293 | 3.0 | 3.0 | 0.00 | 0.00 | 0.00 | 53 | 1017.8 |
| 20260505011017 | 62 | 293 | 3.0 | 4.0 | 0.00 | 0.00 | 0.00 | 53 | 1017.8 |
| 20260505010538 | 62 | 293 | 3.0 | 4.0 | 0.00 | 0.00 | 0.00 | 54 | 1017.9 |
| 20260505010018 | 62 | 270 | 3.0 | 4.0 | 0.00 | 0.00 | 0.00 | 53 | 1017.9 |
| 20260505005518 | 62 | 270 | 3.0 | 4.0 | 0.00 | 0.00 | 0.00 | 53 | 1017.9 |
| 20260505005017 | 62 | 270 | 4.0 | 6.0 | 0.00 | 0.00 | 0.00 | 53 | 1017.9 |
| 20260505004517 | 62 | 270 | 3.0 | 5.0 | 0.00 | 0.00 | 0.00 | 52 | 1017.9 |
| 20260505004017 | 62 | 270 | 3.0 | 4.0 | 0.00 | 0.00 | 0.00 | 53 | 1017.9 |
| 20260505003538 | 61 | 270 | 4.0 | 5.0 | 0.00 | 0.00 | 0.00 | 53 | 1018.0 |
| 20260505003037 | 61 | 270 | 3.0 | 4.0 | 0.00 | 0.00 | 0.00 | 54 | 1018.0 |
| 20260505002518 | 61 | 270 | 3.0 | 4.0 | 0.00 | 0.00 | 0.00 | 55 | 1018.0 |
| 20260505002018 | 60 | 270 | 2.0 | 3.0 | 0.00 | 0.00 | 0.00 | 57 | 1018.1 |
| 20260505001518 | 60 | 270 | 1.0 | 2.0 | 0.00 | 0.00 | 0.00 | 58 | 1018.1 |
| 20260505001017 | 60 | 270 | 2.0 | 3.0 | 0.00 | 0.00 | 0.00 | 57 | 1018.2 |
| 20260505000517 | 60 | 270 | 1.0 | 3.0 | 0.00 | 0.00 | 0.00 | 58 | 1018.2 |
| 20260505000017 | 60 | 0.0 | 1.0 | 0.00 | 0.00 | 0.00 | 60 | 1018.3 | |
| 20260504235517 | 60 | 270 | 2.0 | 3.0 | 0.00 | 0.00 | 0.00 | 60 | 1018.3 |